Showing default

KIKU 2 (ETS 2), 9852

Orbit data source: Space-Track

KIKU 2 (ETS 2), 9852 is a payload satellite owned by NASDA (JP) in GEO that was launched on Wed, 23 Feb 1977 UTC via an N-1 launch vehicle from the Tanegashima Space Center (TNSTA). Payloads include a variety of satellites, spacecraft, and rockets equipped with specific instruments for various scientific and technological missions. These include communications satellites like Starlink; space stations such as the ISS; scientific satellites like the Hubble; Earth observation satellites from companies like Planet Labs, Umbra, and HawkEye 360; GPS; miniature CubeSats for education and research; and military/defense satellites.

Loading next visibility...
KIKU 2 (ETS 2) details
Identifier
9852, 1977-014A
Orbit
GEO
Last TLE update13 hours ago
Origin
Flag of JPNASDA (JP / JPN)
ManufacturerMELCO/FORDA
MissionNon-operational Civil Communications
Bus & MotorETS-2, NASDA AKM
Mass254 kg wet, 108 kg dry
Launch date (UTC)
1977-02-23 (48 years ago)
Launch vehicle
N-1
Launch site
Tanegashima Space Center (TNSTA)
Object type
Payload
Rocket body
Debris
Shape & HBRPolyhedral Cyl, 1.4 m
Radar Cross Section1.759 m², Large (>1 m²)

Expand to show TLE details & history

TLE from 13 hours ago
0 KIKU 2 (ETS 2)
1  9852U 77014A   24348.43050473 -.00000019  00000-0  00000+0 0  9990
2  9852   6.6543 289.1629 0001155 283.7367 277.4107  0.99996715121709
Epoch: 2024-12-13T10:19Z
Definitive object data (Epoch: 2024-12-13T10:19:55.608Z)
Latitude-2.39109°
Longitude-107.43883°
Altitude35,863.137 km
Speed3.072 km/s
True Right ascension08h 40m 33s
True Declination-2° 23' 19"
Sunlit
Object was in daylight at TLE epoch
Visualization TLE readout
Latitude3.25363°
Longitude80.7218°
Altitude35,864.31 km
Speed3.072 km/s
Apparent Right ascension21h 11m 42s
Apparent Declination-2° 34' 25"
Sunlit
Object is in daylight
Visualization observer readout
Local Sidereal Time21:24:36
Azimuth184.764° SSW
Elevation47.407°
Doppler factor1
Orbital elements
Apogee altitude35,869.81 km
Perigee altitude35,860.052 km
Semi-major axis42,243.068 km
Eccentricity0.0001155
Inclination6.6543°
RAAN289.1629°
Arg. of periapsis283.7367°
True anomaly277.39757°
Mean anomaly277.4107°
Eccentric anomaly277.40414°
Mean motion0.24998 °/min
BSTARUnknown
Orbital period1440.1 mins
Loading historical data...
9852 neighbors
Authenticating...
Loading maneuver chart data...
Loading historical data...
Loading historical data...
Loading historical data...
Loading historical data...
Loading historical data...
Loading historical data...
Loading historical data...
Other satellites on launch #14 in the year 1977 (1977-02-23 UTC)

KIKU 2 (ETS 2) Visibility forecast

Observer location: undefined°, undefined

Span
Click to sort rows by Start time (UTC) header in descending order
Start Az.
Max El. time (UTC)
Max El. Az.
Max El.
End time (UTC)
End Az.
1440 mins2024-12-13 22:52:37.771Z184.762° SSW2024-12-14 03:01:37.771Z185.164° SSW37.95°2024-12-14 22:52:37.771Z186.403° SSW
|